Year,Month,Day,Hour,Minute,Value (Times are PST for temperature in C)
2021,06,28,00,00,17.60
2021,06,28,00,01,17.80
2021,06,28,00,02,18.00
2021,06,28,00,03,18.20
2021,06,28,00,04,18.30
2021,06,28,00,05,18.40
2021,06,28,00,06,18.50
2021,06,28,00,07,18.70
2021,06,28,00,08,18.90
2021,06,28,00,09,18.90
2021,06,28,00,10,19.00
2021,06,28,00,11,19.00
2021,06,28,00,12,19.00
2021,06,28,00,13,19.10
2021,06,28,00,14,19.10
2021,06,28,00,15,19.20
2021,06,28,00,16,19.10
2021,06,28,00,17,18.90
2021,06,28,00,18,18.70
2021,06,28,00,19,18.50
2021,06,28,00,20,18.50
2021,06,28,00,21,18.40
2021,06,28,00,22,18.40
2021,06,28,00,23,18.40
2021,06,28,00,24,18.50
2021,06,28,00,25,18.60
2021,06,28,00,26,18.70
2021,06,28,00,27,18.80
2021,06,28,00,28,18.80
2021,06,28,00,29,18.80
2021,06,28,00,30,18.70
2021,06,28,00,31,18.60
2021,06,28,00,32,18.50
2021,06,28,00,33,18.30
2021,06,28,00,34,18.20
2021,06,28,00,35,18.00
2021,06,28,00,36,18.00
2021,06,28,00,37,17.90
2021,06,28,00,38,17.80
2021,06,28,00,39,17.80
2021,06,28,00,40,17.80
2021,06,28,00,41,17.80
2021,06,28,00,42,17.90
2021,06,28,00,43,18.00
2021,06,28,00,44,18.10
2021,06,28,00,45,18.30
2021,06,28,00,46,18.40
2021,06,28,00,47,18.40
2021,06,28,00,48,18.40
2021,06,28,00,49,18.50
2021,06,28,00,50,18.60
2021,06,28,00,51,18.70
2021,06,28,00,52,18.80
2021,06,28,00,53,18.80
2021,06,28,00,54,18.90
2021,06,28,00,55,19.00
2021,06,28,00,56,19.20
2021,06,28,00,57,19.30
2021,06,28,00,58,19.30
2021,06,28,00,59,19.50
2021,06,28,01,00,19.50
2021,06,28,01,01,19.50
2021,06,28,01,02,19.60
2021,06,28,01,03,19.60
2021,06,28,01,04,19.60
2021,06,28,01,05,19.70
2021,06,28,01,06,19.70
2021,06,28,01,07,19.60
2021,06,28,01,08,19.60
2021,06,28,01,09,19.50
2021,06,28,01,10,19.50
2021,06,28,01,11,19.50
2021,06,28,01,12,19.50
2021,06,28,01,13,19.40
2021,06,28,01,14,19.30
2021,06,28,01,15,19.20
2021,06,28,01,16,19.00
2021,06,28,01,17,18.90
2021,06,28,01,18,18.90
2021,06,28,01,19,18.90
2021,06,28,01,20,18.90
2021,06,28,01,21,18.80
2021,06,28,01,22,18.70
2021,06,28,01,23,18.60
2021,06,28,01,24,18.40
2021,06,28,01,25,18.30
2021,06,28,01,26,18.10
2021,06,28,01,27,18.10
2021,06,28,01,28,18.00
2021,06,28,01,29,17.90
2021,06,28,01,30,17.90
2021,06,28,01,31,17.80
2021,06,28,01,32,17.70
2021,06,28,01,33,17.60
2021,06,28,01,34,17.50
2021,06,28,01,35,17.50
2021,06,28,01,36,17.40
2021,06,28,01,37,17.40
2021,06,28,01,38,17.40
2021,06,28,01,39,17.30
2021,06,28,01,40,17.30
2021,06,28,01,41,17.20
2021,06,28,01,42,17.10
2021,06,28,01,43,17.00
2021,06,28,01,44,16.90
2021,06,28,01,45,16.80
2021,06,28,01,46,16.70
2021,06,28,01,47,16.50
2021,06,28,01,48,16.50
2021,06,28,01,49,16.40
2021,06,28,01,50,16.40
2021,06,28,01,51,16.30
2021,06,28,01,52,16.20
2021,06,28,01,53,15.80
2021,06,28,01,54,15.50
2021,06,28,01,55,15.40
2021,06,28,01,56,15.40
2021,06,28,01,57,15.50
2021,06,28,01,58,15.60
2021,06,28,01,59,15.80
2021,06,28,02,00,15.90
2021,06,28,02,01,16.00
2021,06,28,02,02,16.10
2021,06,28,02,03,16.20
2021,06,28,02,04,16.20
2021,06,28,02,05,16.30
2021,06,28,02,06,16.30
2021,06,28,02,07,16.30
2021,06,28,02,08,16.30
2021,06,28,02,09,16.30
2021,06,28,02,10,16.10
2021,06,28,02,11,16.20
2021,06,28,02,12,16.50
2021,06,28,02,13,16.70
2021,06,28,02,14,16.80
2021,06,28,02,15,16.80
2021,06,28,02,16,16.80
2021,06,28,02,17,16.80
2021,06,28,02,18,16.80
2021,06,28,02,19,16.90
2021,06,28,02,20,17.10
2021,06,28,02,21,17.20
2021,06,28,02,22,17.20
2021,06,28,02,23,17.30
2021,06,28,02,24,17.50
2021,06,28,02,25,17.60
2021,06,28,02,26,17.60
2021,06,28,02,27,17.60
2021,06,28,02,28,17.60
2021,06,28,02,29,17.70
2021,06,28,02,30,17.80
2021,06,28,02,31,17.90
2021,06,28,02,32,18.00
2021,06,28,02,33,18.00
2021,06,28,02,34,17.90
2021,06,28,02,35,17.90
2021,06,28,02,36,17.90
2021,06,28,02,37,17.70
2021,06,28,02,38,17.50
2021,06,28,02,39,17.40
2021,06,28,02,40,17.30
2021,06,28,02,41,17.20
2021,06,28,02,42,17.20
2021,06,28,02,43,17.20
2021,06,28,02,44,17.20
2021,06,28,02,45,17.20
2021,06,28,02,46,17.10
2021,06,28,02,47,16.90
2021,06,28,02,48,16.80
2021,06,28,02,49,16.70
2021,06,28,02,50,16.60
2021,06,28,02,51,16.50
2021,06,28,02,52,16.30
2021,06,28,02,53,16.40
2021,06,28,02,54,16.50
2021,06,28,02,55,16.60
2021,06,28,02,56,16.60
2021,06,28,02,57,16.50
2021,06,28,02,58,16.20
2021,06,28,02,59,15.90
2021,06,28,03,00,15.70
2021,06,28,03,01,15.40
2021,06,28,03,02,15.10
2021,06,28,03,03,14.90
2021,06,28,03,04,14.80
2021,06,28,03,05,14.70
2021,06,28,03,06,14.60
2021,06,28,03,07,14.60
2021,06,28,03,08,14.50
2021,06,28,03,09,14.50
2021,06,28,03,10,14.50
2021,06,28,03,11,14.60
2021,06,28,03,12,14.70
2021,06,28,03,13,14.70
2021,06,28,03,14,14.70
2021,06,28,03,15,14.70
2021,06,28,03,16,14.70
2021,06,28,03,17,14.70
2021,06,28,03,18,14.80
2021,06,28,03,19,15.00
2021,06,28,03,20,15.20
2021,06,28,03,21,15.30
2021,06,28,03,22,15.30
2021,06,28,03,23,15.50
2021,06,28,03,24,15.50
2021,06,28,03,25,15.70
2021,06,28,03,26,15.70
2021,06,28,03,27,15.80
2021,06,28,03,28,15.90
2021,06,28,03,29,16.00
2021,06,28,03,30,16.20
2021,06,28,03,31,16.30
2021,06,28,03,32,16.30
2021,06,28,03,33,16.30
2021,06,28,03,34,16.20
2021,06,28,03,35,16.20
2021,06,28,03,36,16.20
2021,06,28,03,37,16.20
2021,06,28,03,38,16.20
2021,06,28,03,39,16.20
2021,06,28,03,40,16.20
2021,06,28,03,41,16.30
2021,06,28,03,42,16.40
2021,06,28,03,43,16.40
2021,06,28,03,44,16.30
2021,06,28,03,45,16.20
2021,06,28,03,46,16.10
2021,06,28,03,47,15.90
2021,06,28,03,48,15.90
2021,06,28,03,49,15.80
2021,06,28,03,50,15.80
2021,06,28,03,51,15.80
2021,06,28,03,52,15.80
2021,06,28,03,53,15.90
2021,06,28,03,54,16.00
2021,06,28,03,55,16.10
2021,06,28,03,56,16.10
2021,06,28,03,57,16.10
2021,06,28,03,58,16.00
2021,06,28,03,59,16.00
2021,06,28,04,00,16.00
2021,06,28,04,01,16.10
2021,06,28,04,02,16.20
2021,06,28,04,03,16.20
2021,06,28,04,04,16.30
2021,06,28,04,05,16.30
2021,06,28,04,06,16.30
2021,06,28,04,07,16.30
2021,06,28,04,08,16.30
2021,06,28,04,09,16.30
2021,06,28,04,10,16.30
2021,06,28,04,11,16.30
2021,06,28,04,12,16.20
2021,06,28,04,13,16.20
2021,06,28,04,14,16.10
2021,06,28,04,15,16.10
2021,06,28,04,16,16.00
2021,06,28,04,17,15.90
2021,06,28,04,18,15.90
2021,06,28,04,19,15.80
2021,06,28,04,20,15.80
2021,06,28,04,21,15.70
2021,06,28,04,22,15.60
2021,06,28,04,23,15.70
2021,06,28,04,24,15.80
2021,06,28,04,25,15.80
2021,06,28,04,26,15.80
2021,06,28,04,27,15.80
2021,06,28,04,28,15.90
2021,06,28,04,29,15.90
2021,06,28,04,30,16.00
2021,06,28,04,31,16.10
2021,06,28,04,32,16.10
2021,06,28,04,33,16.00
2021,06,28,04,34,15.90
2021,06,28,04,35,15.70
2021,06,28,04,36,15.60
2021,06,28,04,37,15.60
2021,06,28,04,38,15.60
2021,06,28,04,39,15.50
2021,06,28,04,40,15.40
2021,06,28,04,41,15.20
2021,06,28,04,42,15.00
2021,06,28,04,43,14.90
2021,06,28,04,44,14.80
2021,06,28,04,45,14.70
2021,06,28,04,46,14.80
2021,06,28,04,47,14.90
2021,06,28,04,48,15.00
2021,06,28,04,49,15.10
2021,06,28,04,50,15.10
2021,06,28,04,51,15.10
2021,06,28,04,52,15.10
2021,06,28,04,53,15.00
2021,06,28,04,54,15.10
2021,06,28,04,55,15.10
2021,06,28,04,56,15.10
2021,06,28,04,57,15.20
2021,06,28,04,58,15.30
2021,06,28,04,59,15.50
2021,06,28,05,00,15.50
2021,06,28,05,01,15.40
2021,06,28,05,02,15.30
2021,06,28,05,03,15.20
2021,06,28,05,04,15.20
2021,06,28,05,05,15.20
2021,06,28,05,06,15.20
2021,06,28,05,07,15.20
2021,06,28,05,08,15.20
2021,06,28,05,09,15.20
2021,06,28,05,10,15.20
2021,06,28,05,11,15.20
2021,06,28,05,12,15.20
2021,06,28,05,13,15.40
2021,06,28,05,14,15.40
2021,06,28,05,15,15.40
2021,06,28,05,16,15.40
2021,06,28,05,17,15.40
2021,06,28,05,18,15.40
2021,06,28,05,19,15.40
2021,06,28,05,20,15.40
2021,06,28,05,21,15.40
2021,06,28,05,22,15.40
2021,06,28,05,23,15.40
2021,06,28,05,24,15.30
2021,06,28,05,25,15.30
2021,06,28,05,26,15.20
2021,06,28,05,27,15.20
2021,06,28,05,28,15.10
2021,06,28,05,29,15.10
2021,06,28,05,30,15.10
2021,06,28,05,31,15.10
2021,06,28,05,32,15.00
2021,06,28,05,33,15.10
2021,06,28,05,34,15.10
2021,06,28,05,35,15.10
2021,06,28,05,36,15.20
2021,06,28,05,37,15.30
2021,06,28,05,38,15.40
2021,06,28,05,39,15.50
2021,06,28,05,40,15.60
2021,06,28,05,41,15.60
2021,06,28,05,42,15.70
2021,06,28,05,43,15.80
2021,06,28,05,44,15.90
2021,06,28,05,45,15.90
2021,06,28,05,46,16.00
2021,06,28,05,47,16.00
2021,06,28,05,48,16.10
2021,06,28,05,49,16.10
2021,06,28,05,50,16.10
2021,06,28,05,51,16.10
2021,06,28,05,52,16.10
2021,06,28,05,53,16.10
2021,06,28,05,54,16.10
2021,06,28,05,55,16.10
2021,06,28,05,56,16.00
2021,06,28,05,57,15.90
2021,06,28,05,58,15.80
2021,06,28,05,59,15.60
2021,06,28,06,00,15.60
2021,06,28,06,01,15.50
2021,06,28,06,02,15.50
2021,06,28,06,03,15.50
2021,06,28,06,04,15.50
2021,06,28,06,05,15.50
2021,06,28,06,06,15.50
2021,06,28,06,07,15.50
2021,06,28,06,08,15.60
2021,06,28,06,09,15.60
2021,06,28,06,10,15.60
2021,06,28,06,11,15.60
2021,06,28,06,12,15.70
2021,06,28,06,13,15.70
2021,06,28,06,14,15.80
2021,06,28,06,15,15.80
2021,06,28,06,16,15.80
2021,06,28,06,17,15.90
2021,06,28,06,18,15.90
2021,06,28,06,19,16.00
2021,06,28,06,20,16.00
2021,06,28,06,21,16.10
2021,06,28,06,22,16.10
2021,06,28,06,23,16.10
2021,06,28,06,24,16.10
2021,06,28,06,25,16.20
2021,06,28,06,26,16.20
2021,06,28,06,27,16.20
2021,06,28,06,28,16.30
2021,06,28,06,29,16.30
2021,06,28,06,30,16.30
2021,06,28,06,31,16.30
2021,06,28,06,32,16.30
2021,06,28,06,33,16.40
2021,06,28,06,34,16.40
2021,06,28,06,35,16.40
2021,06,28,06,36,16.40
2021,06,28,06,37,16.30
2021,06,28,06,38,16.30
2021,06,28,06,39,16.30
2021,06,28,06,40,16.30
2021,06,28,06,41,16.30
2021,06,28,06,42,16.30
2021,06,28,06,43,16.30
2021,06,28,06,44,16.30
2021,06,28,06,45,16.30
2021,06,28,06,46,16.30
2021,06,28,06,47,16.30
2021,06,28,06,48,16.40
2021,06,28,06,49,16.40
2021,06,28,06,50,16.40
2021,06,28,06,51,16.40
2021,06,28,06,52,16.40
2021,06,28,06,53,16.40
2021,06,28,06,54,16.40
2021,06,28,06,55,16.40
2021,06,28,06,56,16.40
2021,06,28,06,57,16.40
2021,06,28,06,58,16.40
2021,06,28,06,59,16.40
2021,06,28,07,00,16.40
2021,06,28,07,01,16.40
2021,06,28,07,02,16.50
2021,06,28,07,03,16.50
2021,06,28,07,04,16.60
2021,06,28,07,05,16.60
2021,06,28,07,06,16.70
2021,06,28,07,07,16.70
2021,06,28,07,08,16.80
2021,06,28,07,09,16.80
2021,06,28,07,10,16.90
2021,06,28,07,11,16.90
2021,06,28,07,12,16.90
2021,06,28,07,13,17.00
2021,06,28,07,14,17.10
2021,06,28,07,15,17.10
2021,06,28,07,16,17.20
2021,06,28,07,17,17.20
2021,06,28,07,18,17.20
2021,06,28,07,19,17.20
2021,06,28,07,20,17.20
2021,06,28,07,21,17.20
2021,06,28,07,22,17.20
2021,06,28,07,23,17.30
2021,06,28,07,24,17.30
2021,06,28,07,25,17.30
2021,06,28,07,26,17.30
2021,06,28,07,27,17.30
2021,06,28,07,28,17.30
2021,06,28,07,29,17.30
2021,06,28,07,30,17.30
2021,06,28,07,31,17.30
2021,06,28,07,32,17.30
2021,06,28,07,33,17.30
2021,06,28,07,34,17.30
2021,06,28,07,35,17.30
2021,06,28,07,36,17.30
2021,06,28,07,37,17.30
2021,06,28,07,38,17.30
2021,06,28,07,39,17.30
2021,06,28,07,40,17.30
2021,06,28,07,41,17.30
2021,06,28,07,42,17.30
2021,06,28,07,43,17.20
2021,06,28,07,44,17.20
2021,06,28,07,45,17.20
2021,06,28,07,46,17.20
2021,06,28,07,47,17.20
2021,06,28,07,48,17.20
2021,06,28,07,49,17.20
2021,06,28,07,50,17.10
2021,06,28,07,51,17.10
2021,06,28,07,52,17.10
2021,06,28,07,53,17.10
2021,06,28,07,54,17.10
2021,06,28,07,55,17.20
2021,06,28,07,56,17.20
2021,06,28,07,57,17.10
2021,06,28,07,58,17.10
2021,06,28,07,59,17.10
2021,06,28,08,00,17.10
2021,06,28,08,01,17.10
2021,06,28,08,02,17.20
2021,06,28,08,03,17.30
2021,06,28,08,04,17.30
2021,06,28,08,05,17.40
2021,06,28,08,06,17.40
2021,06,28,08,07,17.50
2021,06,28,08,08,17.60
2021,06,28,08,09,17.60
2021,06,28,08,10,17.60
2021,06,28,08,11,17.70
2021,06,28,08,12,17.70
2021,06,28,08,13,17.60
2021,06,28,08,14,17.60
2021,06,28,08,15,17.60
2021,06,28,08,16,17.60
2021,06,28,08,17,17.60
2021,06,28,08,18,17.60
2021,06,28,08,19,17.60
2021,06,28,08,20,17.50
2021,06,28,08,21,17.60
2021,06,28,08,22,17.60
2021,06,28,08,23,17.60
2021,06,28,08,24,17.70
2021,06,28,08,25,17.70
2021,06,28,08,26,17.70
2021,06,28,08,27,17.70
2021,06,28,08,28,17.70
2021,06,28,08,29,17.70
2021,06,28,08,30,17.70
2021,06,28,08,31,17.80
2021,06,28,08,32,17.80
2021,06,28,08,33,17.80
2021,06,28,08,34,17.90
2021,06,28,08,35,17.90
2021,06,28,08,36,17.80
2021,06,28,08,37,17.80
2021,06,28,08,38,17.80
2021,06,28,08,39,17.80
2021,06,28,08,40,17.80
2021,06,28,08,41,17.90
2021,06,28,08,42,17.90
2021,06,28,08,43,18.00
2021,06,28,08,44,18.00
2021,06,28,08,45,18.10
2021,06,28,08,46,18.00
2021,06,28,08,47,18.00
2021,06,28,08,48,18.00
2021,06,28,08,49,18.00
2021,06,28,08,50,18.00
2021,06,28,08,51,18.00
2021,06,28,08,52,18.00
2021,06,28,08,53,18.00
2021,06,28,08,54,18.00
2021,06,28,08,55,18.00
2021,06,28,08,56,18.00
2021,06,28,08,57,18.10
2021,06,28,08,58,18.10
2021,06,28,08,59,18.20
2021,06,28,09,00,18.30
2021,06,28,09,01,18.30
2021,06,28,09,02,18.30
2021,06,28,09,03,18.30
2021,06,28,09,04,18.30
2021,06,28,09,05,18.30
2021,06,28,09,06,18.40
2021,06,28,09,07,18.60
2021,06,28,09,08,18.70
2021,06,28,09,09,18.70
2021,06,28,09,10,18.70
2021,06,28,09,11,18.80
2021,06,28,09,12,18.90
2021,06,28,09,13,19.00
2021,06,28,09,14,19.10
2021,06,28,09,15,19.20
2021,06,28,09,16,19.20
2021,06,28,09,17,19.30
2021,06,28,09,18,19.30
2021,06,28,09,19,19.30
2021,06,28,09,20,19.30
2021,06,28,09,21,19.30
2021,06,28,09,22,19.40
2021,06,28,09,23,19.50
2021,06,28,09,24,19.50
2021,06,28,09,25,19.50
2021,06,28,09,26,19.60
2021,06,28,09,27,19.60
2021,06,28,09,28,19.60
2021,06,28,09,29,19.60
2021,06,28,09,30,19.60
2021,06,28,09,31,19.60
2021,06,28,09,32,19.70
2021,06,28,09,33,19.70
2021,06,28,09,34,19.70
2021,06,28,09,35,19.80
2021,06,28,09,36,19.70
2021,06,28,09,37,19.70
2021,06,28,09,38,19.70
2021,06,28,09,39,19.70
2021,06,28,09,40,19.80
2021,06,28,09,41,19.80
2021,06,28,09,42,19.80
2021,06,28,09,43,19.90
2021,06,28,09,44,19.90
2021,06,28,09,45,20.00
2021,06,28,09,46,20.00
2021,06,28,09,47,20.10
2021,06,28,09,48,20.10
2021,06,28,09,49,20.10
2021,06,28,09,50,20.20
2021,06,28,09,51,20.20
2021,06,28,09,52,20.30
2021,06,28,09,53,20.30
2021,06,28,09,54,20.30
2021,06,28,09,55,20.30
2021,06,28,09,56,20.40
2021,06,28,09,57,20.50
2021,06,28,09,58,20.50
2021,06,28,09,59,20.50
2021,06,28,10,00,20.50
2021,06,28,10,01,20.50
2021,06,28,10,02,20.40
2021,06,28,10,03,20.50
2021,06,28,10,04,20.50
2021,06,28,10,05,20.60
2021,06,28,10,06,20.70
2021,06,28,10,07,20.90
2021,06,28,10,08,21.10
2021,06,28,10,09,21.30
2021,06,28,10,10,21.40
2021,06,28,10,11,21.50
2021,06,28,10,12,21.50
2021,06,28,10,13,21.60
2021,06,28,10,14,21.60
2021,06,28,10,15,21.70
2021,06,28,10,16,21.80
2021,06,28,10,17,21.90
2021,06,28,10,18,22.00
2021,06,28,10,19,22.00
2021,06,28,10,20,22.20
2021,06,28,10,21,22.30
2021,06,28,10,22,22.40
2021,06,28,10,23,22.40
2021,06,28,10,24,22.50
2021,06,28,10,25,22.50
2021,06,28,10,26,22.50
2021,06,28,10,27,22.50
2021,06,28,10,28,22.60
2021,06,28,10,29,22.50
2021,06,28,10,30,22.60
2021,06,28,10,31,22.50
2021,06,28,10,32,22.50
2021,06,28,10,33,22.50
2021,06,28,10,34,22.50
2021,06,28,10,35,22.40
2021,06,28,10,36,22.40
2021,06,28,10,37,22.40
2021,06,28,10,38,22.50
2021,06,28,10,39,22.50
2021,06,28,10,40,22.50
2021,06,28,10,41,22.50
2021,06,28,10,42,22.50
2021,06,28,10,43,22.60
2021,06,28,10,44,22.70
2021,06,28,10,45,22.80
2021,06,28,10,46,22.90
2021,06,28,10,47,23.00
2021,06,28,10,48,23.10
2021,06,28,10,49,23.20
2021,06,28,10,50,23.30
2021,06,28,10,51,23.30
2021,06,28,10,52,23.40
2021,06,28,10,53,23.50
2021,06,28,10,54,23.60
2021,06,28,10,55,23.60
2021,06,28,10,56,23.70
2021,06,28,10,57,23.70
2021,06,28,10,58,23.80
2021,06,28,10,59,23.80
2021,06,28,11,00,23.80
2021,06,28,11,01,23.80
2021,06,28,11,02,23.80
2021,06,28,11,03,23.90
2021,06,28,11,04,23.90
2021,06,28,11,05,23.80
2021,06,28,11,06,23.80
2021,06,28,11,07,23.70
2021,06,28,11,08,23.60
2021,06,28,11,09,23.60
2021,06,28,11,10,23.60
2021,06,28,11,11,23.60
2021,06,28,11,12,23.60
2021,06,28,11,13,23.60
2021,06,28,11,14,23.60
2021,06,28,11,15,23.50
2021,06,28,11,16,23.50
2021,06,28,11,17,23.50
2021,06,28,11,18,23.40
2021,06,28,11,19,23.30
2021,06,28,11,20,23.30
2021,06,28,11,21,23.30
2021,06,28,11,22,23.30
2021,06,28,11,23,23.30
2021,06,28,11,24,23.30
2021,06,28,11,25,23.30
2021,06,28,11,26,23.20
2021,06,28,11,27,23.20
2021,06,28,11,28,23.20
2021,06,28,11,29,23.30
2021,06,28,11,30,23.30
2021,06,28,11,31,23.30
2021,06,28,11,32,23.40
2021,06,28,11,33,23.40
2021,06,28,11,34,23.50
2021,06,28,11,35,23.60
2021,06,28,11,36,23.70
2021,06,28,11,37,23.80
2021,06,28,11,38,23.90
2021,06,28,11,39,24.00
2021,06,28,11,40,24.10
2021,06,28,11,41,24.10
2021,06,28,11,42,24.10
2021,06,28,11,43,24.20
2021,06,28,11,44,24.10
2021,06,28,11,45,24.10
2021,06,28,11,46,24.00
2021,06,28,11,47,23.90
2021,06,28,11,48,23.80
2021,06,28,11,49,23.80
2021,06,28,11,50,23.80
2021,06,28,11,51,23.80
2021,06,28,11,52,23.80
2021,06,28,11,53,23.70
2021,06,28,11,54,23.70
2021,06,28,11,55,23.60
2021,06,28,11,56,23.50
2021,06,28,11,57,23.30
2021,06,28,11,58,23.20
2021,06,28,11,59,23.00
2021,06,28,12,00,22.90
2021,06,28,12,01,22.80
2021,06,28,12,02,22.70
2021,06,28,12,03,22.60
2021,06,28,12,04,22.60
2021,06,28,12,05,22.50
2021,06,28,12,06,22.50
2021,06,28,12,07,22.50
2021,06,28,12,08,22.50
2021,06,28,12,09,22.40
2021,06,28,12,10,22.40
2021,06,28,12,11,22.20
2021,06,28,12,12,22.10
2021,06,28,12,13,21.90
2021,06,28,12,14,21.80
2021,06,28,12,15,21.80
2021,06,28,12,16,21.80
2021,06,28,12,17,21.80
2021,06,28,12,18,21.80
2021,06,28,12,19,21.90
2021,06,28,12,20,21.80
2021,06,28,12,21,21.70
2021,06,28,12,22,21.60
2021,06,28,12,23,21.50
2021,06,28,12,24,21.30
2021,06,28,12,25,21.30
2021,06,28,12,26,21.30
2021,06,28,12,27,21.30
2021,06,28,12,28,21.30
2021,06,28,12,29,21.20
2021,06,28,12,30,21.20
2021,06,28,12,31,21.10
2021,06,28,12,32,21.10
2021,06,28,12,33,21.10
2021,06,28,12,34,21.10
2021,06,28,12,35,21.20
2021,06,28,12,36,21.20
2021,06,28,12,37,21.20
2021,06,28,12,38,21.20
2021,06,28,12,39,21.20
2021,06,28,12,40,21.10
2021,06,28,12,41,21.10
2021,06,28,12,42,21.10
2021,06,28,12,43,21.20
2021,06,28,12,44,21.20
2021,06,28,12,45,21.30
2021,06,28,12,46,21.40
2021,06,28,12,47,21.60
2021,06,28,12,48,21.90
2021,06,28,12,49,22.10
2021,06,28,12,50,22.30
2021,06,28,12,51,22.40
2021,06,28,12,52,22.40
2021,06,28,12,53,22.50
2021,06,28,12,54,22.50
2021,06,28,12,55,22.50
2021,06,28,12,56,22.60
2021,06,28,12,57,22.60
2021,06,28,12,58,22.50
2021,06,28,12,59,22.40
2021,06,28,13,00,22.20
2021,06,28,13,01,22.10
2021,06,28,13,02,21.90
2021,06,28,13,03,21.80
2021,06,28,13,04,21.70
2021,06,28,13,05,21.60
2021,06,28,13,06,21.60
2021,06,28,13,07,21.60
2021,06,28,13,08,21.70
2021,06,28,13,09,21.70
2021,06,28,13,10,21.80
2021,06,28,13,11,21.80
2021,06,28,13,12,21.90
2021,06,28,13,13,21.90
2021,06,28,13,14,21.90
2021,06,28,13,15,22.00
2021,06,28,13,16,22.00
2021,06,28,13,17,22.10
2021,06,28,13,18,22.10
2021,06,28,13,19,22.20
2021,06,28,13,20,22.30
2021,06,28,13,21,22.30
2021,06,28,13,22,22.30
2021,06,28,13,23,22.40
2021,06,28,13,24,22.40
2021,06,28,13,25,22.50
2021,06,28,13,26,22.50
2021,06,28,13,27,22.50
2021,06,28,13,28,22.50
2021,06,28,13,29,22.50
2021,06,28,13,30,22.40
2021,06,28,13,31,22.40
2021,06,28,13,32,22.40
2021,06,28,13,33,22.40
2021,06,28,13,34,22.40
2021,06,28,13,35,22.30
2021,06,28,13,36,22.10
2021,06,28,13,37,22.00
2021,06,28,13,38,21.80
2021,06,28,13,39,21.70
2021,06,28,13,40,21.70
2021,06,28,13,41,21.70
2021,06,28,13,42,21.80
2021,06,28,13,43,21.90
2021,06,28,13,44,22.10
2021,06,28,13,45,22.20
2021,06,28,13,46,22.30
2021,06,28,13,47,22.30
2021,06,28,13,48,22.50
2021,06,28,13,49,22.60
2021,06,28,13,50,22.60
2021,06,28,13,51,22.60
2021,06,28,13,52,22.60
2021,06,28,13,53,22.70
2021,06,28,13,54,22.80
2021,06,28,13,55,23.00
2021,06,28,13,56,23.20
2021,06,28,13,57,23.30
2021,06,28,13,58,23.40
2021,06,28,13,59,23.60
2021,06,28,14,00,23.60
2021,06,28,14,01,23.70
2021,06,28,14,02,23.70
2021,06,28,14,03,23.70
2021,06,28,14,04,23.70
2021,06,28,14,05,23.70
2021,06,28,14,06,23.70
2021,06,28,14,07,23.70
2021,06,28,14,08,23.60
2021,06,28,14,09,23.60
2021,06,28,14,10,23.70
2021,06,28,14,11,23.70
2021,06,28,14,12,23.60
2021,06,28,14,13,23.50
2021,06,28,14,14,23.30
2021,06,28,14,15,23.30
2021,06,28,14,16,23.20
2021,06,28,14,17,23.20
2021,06,28,14,18,23.10
2021,06,28,14,19,23.10
2021,06,28,14,20,23.10
2021,06,28,14,21,23.10
2021,06,28,14,22,23.10
2021,06,28,14,23,23.00
2021,06,28,14,24,22.90
2021,06,28,14,25,22.90
2021,06,28,14,26,22.80
2021,06,28,14,27,22.80
2021,06,28,14,28,22.80
2021,06,28,14,29,22.80
2021,06,28,14,30,22.80
2021,06,28,14,31,22.90
2021,06,28,14,32,23.00
2021,06,28,14,33,23.20
2021,06,28,14,34,23.30
2021,06,28,14,35,23.50
2021,06,28,14,36,23.60
2021,06,28,14,37,23.70
2021,06,28,14,38,23.70
2021,06,28,14,39,23.80
2021,06,28,14,40,23.80
2021,06,28,14,41,23.90
2021,06,28,14,42,24.10
2021,06,28,14,43,24.30
2021,06,28,14,44,24.40
2021,06,28,14,45,24.50
2021,06,28,14,46,24.50
2021,06,28,14,47,24.50
2021,06,28,14,48,24.60
2021,06,28,14,49,24.60
2021,06,28,14,50,24.70
2021,06,28,14,51,24.80
2021,06,28,14,52,24.90
2021,06,28,14,53,25.00
2021,06,28,14,54,25.20
2021,06,28,14,55,25.30
2021,06,28,14,56,25.30
2021,06,28,14,57,25.40
2021,06,28,14,58,25.30
2021,06,28,14,59,25.30
2021,06,28,15,00,25.20
2021,06,28,15,01,25.20
2021,06,28,15,02,25.20
2021,06,28,15,03,25.20
2021,06,28,15,04,25.30
2021,06,28,15,05,25.30
2021,06,28,15,06,25.30
2021,06,28,15,07,25.30
2021,06,28,15,08,25.40
2021,06,28,15,09,25.40
2021,06,28,15,10,25.30
2021,06,28,15,11,25.20
2021,06,28,15,12,24.90
2021,06,28,15,13,24.70
2021,06,28,15,14,24.60
2021,06,28,15,15,24.60
2021,06,28,15,16,24.50
2021,06,28,15,17,24.50
2021,06,28,15,18,24.30
2021,06,28,15,19,24.30
2021,06,28,15,20,24.30
2021,06,28,15,21,24.30
2021,06,28,15,22,24.40
2021,06,28,15,23,24.40
2021,06,28,15,24,24.50
2021,06,28,15,25,24.60
2021,06,28,15,26,24.70
2021,06,28,15,27,24.80
2021,06,28,15,28,24.80
2021,06,28,15,29,24.70
2021,06,28,15,30,24.60
2021,06,28,15,31,24.60
2021,06,28,15,32,24.60
2021,06,28,15,33,24.50
2021,06,28,15,34,24.50
2021,06,28,15,35,24.30
2021,06,28,15,36,24.20
2021,06,28,15,37,24.10
2021,06,28,15,38,24.00
2021,06,28,15,39,24.00
2021,06,28,15,40,24.00
2021,06,28,15,41,23.90
2021,06,28,15,42,23.80
2021,06,28,15,43,23.80
2021,06,28,15,44,23.70
2021,06,28,15,45,23.70
2021,06,28,15,46,23.70
2021,06,28,15,47,23.80
2021,06,28,15,48,23.90
2021,06,28,15,49,23.90
2021,06,28,15,50,23.90
2021,06,28,15,51,23.80
2021,06,28,15,52,23.80
2021,06,28,15,53,23.70
2021,06,28,15,54,23.60
2021,06,28,15,55,23.50
2021,06,28,15,56,23.50
2021,06,28,15,57,23.50
2021,06,28,15,58,23.50
2021,06,28,15,59,23.50
2021,06,28,16,00,23.40
2021,06,28,16,01,23.40
2021,06,28,16,02,23.40
2021,06,28,16,03,23.40
2021,06,28,16,04,23.30
2021,06,28,16,05,23.30
2021,06,28,16,06,23.30
2021,06,28,16,07,23.30
2021,06,28,16,08,23.30
2021,06,28,16,09,23.30
2021,06,28,16,10,23.30
2021,06,28,16,11,23.30
2021,06,28,16,12,23.30
2021,06,28,16,13,23.30
2021,06,28,16,14,23.30
2021,06,28,16,15,23.30
2021,06,28,16,16,23.30
2021,06,28,16,17,23.20
2021,06,28,16,18,23.20
2021,06,28,16,19,23.20
2021,06,28,16,20,23.20
2021,06,28,16,21,23.20
2021,06,28,16,22,23.20
2021,06,28,16,23,23.20
2021,06,28,16,24,23.10
2021,06,28,16,25,23.10
2021,06,28,16,26,23.10
2021,06,28,16,27,23.10
2021,06,28,16,28,23.10
2021,06,28,16,29,23.10
2021,06,28,16,30,23.10
2021,06,28,16,31,23.10
2021,06,28,16,32,23.20
2021,06,28,16,33,23.20
2021,06,28,16,34,23.30
2021,06,28,16,35,23.30
2021,06,28,16,36,23.30
2021,06,28,16,37,23.30
2021,06,28,16,38,23.30
2021,06,28,16,39,23.30
2021,06,28,16,40,23.30
2021,06,28,16,41,23.30
2021,06,28,16,42,23.30
2021,06,28,16,43,23.40
2021,06,28,16,44,23.50
2021,06,28,16,45,23.60
2021,06,28,16,46,23.70
2021,06,28,16,47,23.80
2021,06,28,16,48,23.90
2021,06,28,16,49,24.00
2021,06,28,16,50,24.10
2021,06,28,16,51,24.20
2021,06,28,16,52,24.20
2021,06,28,16,53,24.20
2021,06,28,16,54,24.20
2021,06,28,16,55,24.10
2021,06,28,16,56,24.10
2021,06,28,16,57,24.00
2021,06,28,16,58,23.90
2021,06,28,16,59,23.90
2021,06,28,17,00,24.00
2021,06,28,17,01,24.00
2021,06,28,17,02,24.00
2021,06,28,17,03,24.10
2021,06,28,17,04,24.10
2021,06,28,17,05,24.10
2021,06,28,17,06,24.10
2021,06,28,17,07,24.10
2021,06,28,17,08,24.10
2021,06,28,17,09,24.20
2021,06,28,17,10,24.10
2021,06,28,17,11,24.10
2021,06,28,17,12,24.10
2021,06,28,17,13,24.10
2021,06,28,17,14,24.10
2021,06,28,17,15,24.10
2021,06,28,17,16,24.10
2021,06,28,17,17,24.10
2021,06,28,17,18,24.10
2021,06,28,17,19,24.10